Regional Weather Roundup
Issued by NWS

Home | Current Version | Previous Version | Text Only | Print | Product List | Glossary Off
Versions: 1 2 3 4 5 6 7 8 9 10 11 12 13 14 15 16 17 18 19 20 21 22 23 24 25 26 27

000
ASUS45 KBOU 260207
RWRCO

WEATHER ROUNDUP FOR COLORADO
NATIONAL WEATHER SERVICE DENVER/BOULDER CO
800 PM MDT MON SEP 25 2017

NOTE: "FAIR" INDICATES FEW OR NO CLOUDS BELOW 12000 FEET WITH NO
SIGNIFICANT WEATHER AND/OR OBSTRUCTIONS TO VISIBILITY.

COZ001>005-013-030-031-260300-
...NORTHWEST COLORADO...

CITY           SKY/WX    TMP DP  RH WIND       PRES   REMARKS
CRAIG          FAIR      42  27  55 CALM      30.13R
HAYDEN         FAIR      45  27  49 NW3       30.14R
MEEKER         FAIR      46  27  47 NW5       30.11R
RABBIT EARS PA MOCLDY    30  25  80 NW8       30.21R WCI  23
STEAMBOAT SPGS FAIR      42  29  58 NW6       30.13R
WALDEN         FAIR      37  28  70 N8        30.17R
$$

COZ006>008-011-260300-
...WEST CENTRAL VALLEYS...

CITY           SKY/WX    TMP DP  RH WIND       PRES   REMARKS
GRAND JUNCTION FAIR      55  29  36 NW3       30.02R
MONTROSE       FAIR      53  32  44 W3        30.07R
EAGLE          FAIR      53  26  35 W3        30.10R
RIFLE          FAIR      54  29  38 NW7       30.05R
DELTA          FAIR      60  26  27 W3        30.02S
NUCLA          FAIR      54  25  32 NW7       30.07R
$$

COZ017>023-064>068-260300-
...SOUTHWEST COLORADO...

CITY           SKY/WX    TMP DP  RH WIND       PRES   REMARKS
DURANGO        FAIR      53  14  21 VRB3      30.04R
CORTEZ         FAIR      52  29  41 S6        30.02R
PAGOSA SPRINGS FAIR      43  19  38 CALM      30.09R
TELLURIDE      FAIR      43  19  38 CALM      30.16S
WOLF CREEK PAS FAIR      32   9  37 S9        30.30R WCI  24
$$

COZ009-010-012-014-032>034-037-058>063-260300-
...CENTRAL COLORADO...

CITY           SKY/WX    TMP DP  RH WIND       PRES   REMARKS
ASPEN          FAIR      45  25  45 CALM      30.11R
BUENA VISTA    FAIR      44  36  73 E5        30.12R
COPPER MTN     FAIR      34  19  55 MISG      30.26R
BERTHOUD PASS  FAIR      23  14  68 NW20      30.26R WCI   8
COTTONWOOD PAS FAIR      46  23  39 CALM      30.18R
GUNNISON       FAIR      45  16  31 NE7       30.11R
KREMMLING      FAIR      48  27  43 NW8       30.14R
LEADVILLE      FAIR      38  13  35 VRB5      30.16R
MONARCH PASS   FAIR      32  16  51 W21       30.35R WCI  20
SALIDA         FAIR      48  38  67 SE9G21    30.17R
SUNLIGHT       FAIR      30  21  69 W8        30.25R WCI  23
WILKERSON PASS HVY SNOW  32  30  93 E9        30.28R VSB<1/4 WCI  24
$$

COZ069>075-260300-
...SAN LUIS VALLEY/SANGRE DE CRISTO MOUNTAINS...

CITY           SKY/WX    TMP DP  RH WIND       PRES   REMARKS
ALAMOSA        FAIR      46  13  26 SW9       30.05R
DEL NORTE      FAIR      48  11  22 W8        30.08R
LA VETA PASS   FOG       36  34  93 MISG      30.30R VSB<1/4
SAGUACHE       FAIR      50  18  27 N3        30.08R
$$

COZ035-036-038>040-260300-
...NORTHERN COLORADO FRONT RANGE...

CITY           SKY/WX    TMP DP  RH WIND       PRES   REMARKS
DENVER INTL AP CLOUDY    49  43  80 E7        30.11R
DMNS CITY PARK   N/A     50  41  71 NE3G13    30.12R
AURORA         CLOUDY    47  45  93 NE7       30.12R
FRONT RANGE AP MOCLDY    50  45  81 SE5       30.12R
ERIE MUNI ARPT FAIR      50  42  72 E3        30.15R
BOULDER MUN AP CLOUDY    50  45  81 CALM      30.10R
CENTENNIAL     CLOUDY    47  46  97 NW9       30.12R
BROOMFIELD     NOT AVBL
FORT COLLINS   FAIR      49  43  80 SE6       30.10R
LONGMONT       MOCLDY    53  43  70 SE3       30.11R
$$

COZ041-046-047-076>085-087-088-260300-
...PIKES PEAK/PALMER DIVIDE AND SOUTHERN FOOTHILLS...

CITY           SKY/WX    TMP DP  RH WIND       PRES   REMARKS
COLO. SPRINGS  CLOUDY    50  44  80 SE13      30.13R
A. F. ACADEMY  CLOUDY    47  40  76 N8        30.12R
SCHRIEVER AFB  LGT RAIN  48  43  81 MISG      30.13R
CHEYENNE MTN   LGT RAIN  45  44  95 S10       30.08R
ELLICOTT       MOCLDY   N/A N/A N/A E9        30.11R
FALCON         LGT RAIN  44  42  92 NE5       30.15R
FORT CARSON    CLOUDY    50  46  84 S10       30.10R
LIMON            N/A    N/A N/A N/A MISG      30.11R
MONUMENT HILL  CLOUDY    41  39  93 CALM      30.16R
CANON CITY     NOT AVBL
WALSENBURG     NOT AVBL
TRINIDAD       CLOUDY    49  48  97 E6        30.10R
$$

COZ042>045-048>051-090-091-260300-
...NORTHEAST COLORADO...

CITY           SKY/WX    TMP DP  RH WIND       PRES   REMARKS
GREELEY ARPT   FAIR      48  44  86 E8        30.11R
AKRON          CLOUDY    47  41  80 NE8       30.11R
BURLINGTON     CLOUDY    48  47  96 N10       30.10R
WRAY           CLOUDY    48  46  93 N3        30.10R
YUMA           CLOUDY    45  45 100 N5        30.11R
STERLING       CLOUDY    50  43  76 CALM      30.11R
HOLYOKE        CLOUDY    52  48  87 N3        30.10R
FORT MORGAN    CLOUDY    49  41  74 E6        30.12R
$$

COZ086-089-092>099-260300-
...SOUTHEAST COLORADO...

CITY           SKY/WX    TMP DP  RH WIND       PRES   REMARKS
PUEBLO         MOCLDY    53  47  79 E12       30.08R
LA JUNTA       CLOUDY    53  48  83 NE7       30.09R
LAMAR          CLOUDY    52  47  83 N5        30.07R
SPRINGFIELD      N/A     50  50 100 NE9       30.08R
$$




USA.gov is the U.S. government's official web portal to all federal, state and local government web resources and services.